User: anonymous   Login
Location: Newark
(27.2452°N, 107.0032°W)
Time: 23:05:53
(UTC+00:00)
Language:

Hubble Space Telescope - Orbit

View from above orbital plane
View from above orbital plane
View from above satellite
View from above satellite

Ground track
Ground track

The orbit data is extracted from the following two-line orbital elements,

1 20580U 90037B   20026.87565446  .00000310  00000-0  78428-5 0  9997
2 20580  28.4682 182.6466 0002733   0.4400 133.9542 15.09329487434492
Epoch (UTC): 26 January 2020 21:00:56
Eccentricity: 0.0002733
inclination: 28.4682°
perigee height: 536 km
apogee height: 540 km
right ascension of ascending node: 182.6466°
argument of perigee: 0.4400°
revolutions per day: 15.09329487
mean anomaly at epoch: 133.9542°
orbit number at epoch: 43449

The dashed part of the orbit path shows where the satellite is in the earth's shadow,  

DLR